Location: Greenwich
(51.4790°N, 0.0090°E)
Time: 14:35:24
(UTC+01:00)

Altair - Pass Details

Date: 19 June 2025
Orbit: 1502 x 1682 km, 47.2° (Epoch: 19 July)

Event Time Altitude Azimuth Distance (km) Brightness Sun altitude
Rises 22:04:43 0° 186° (S) 4,622 9.6 -5.7°
Reaches altitude 10° 22:08:54 10° 169° (SSE) 3,653 8.9 -6.1°
Maximum altitude 22:14:36 18° 129° (SE) 3,065 8.5 -6.6°
Drops below altitude 10° 22:20:22 10° 90° (E) 3,717 9.2 -7.2°
Sets 22:24:39 0° 74° (ENE) 4,734 9.9 -7.6°
